Zurück zum Katalog

ONEWEB-0254

AktivKommunikationPO
NORAD 48972·PAYLOAD·🇬🇧 United Kingdom

Gestartet Jul 1, 2021 von Vostochny Cosmodrome

Loading…

Nächste Überflüge (nächste 24 Stunden)

TLE

AktuellSource: CelesTrak SupGP

Epoche: Sep 14, 2026, 14:44 UTC

1 48972C 21060F   26257.61403194 -.00000922  00000+0 -24151-2 0  2575
2 48972  87.9155 211.0177 0001976  71.0015 324.3284 13.16595454    13

Verfolge ONEWEB-0254 in Echtzeit mit AllMySat

Download on the App Store